Location: Cella
(44.7333°N, 10.5667°E)
Time: 09:21:36
(UTC+00:00)

Okean 3 - Pass Details

Date: 03 March 2021
Orbit: 576 x 600 km, 82.5° (Epoch: 18 April)

Event Time Altitude Azimuth Distance (km) Brightness Sun altitude
Rises 18:36:35 0° 359° (N) 2,832 7.1 -16.5°
Reaches altitude 10° 18:38:57 10° 9° (N) 1,930 6.1 -16.9°
Maximum altitude 18:42:51 34° 75° (ENE) 983 4.1 -17.6°
Enters shadow 18:42:52 34° 75° (ENE) 983 4.1 -17.6°
